• In France
  • List of Countries
  • For 7 days
  • Water Temperature
  • Satellite Maps
  • Weather Map
  • Weather Widgets
  • user-avatar
    Login

    Hourly Weather Ischgl

    Today, 17 October, Wednesday

    Time Temperature Precipitation Wind Pressure Humidity
    00:00 +2°C° 0 mm 1 mps 576 mmHg 84%
    01:00 +1°C° 0 mm 2 mps 576 mmHg 84%
    02:00 +2°C° 0 mm 1 mps 576 mmHg 84%
    03:00 +1°C° 0 mm 1 mps 575 mmHg 84%
    04:00 +1°C° 0 mm 1 mps 575 mmHg 84%
    05:00 +1°C° 0 mm 1 mps 575 mmHg 83%
    06:00 +1°C° 0 mm 1 mps 575 mmHg 82%
    07:00 +2°C° 0 mm 1 mps 575 mmHg 79%
    08:00 +4°C° 0 mm 1 mps 576 mmHg 69%
    09:00 +6°C° 0 mm 1 mps 577 mmHg 60%
    10:00 +9°C° 0 mm 1 mps 579 mmHg 51%
    11:00 +9°C° 0 mm 1 mps 579 mmHg 49%
    12:00 +10°C° 0 mm 1 mps 579 mmHg 46%
    13:00 +11°C° 0 mm 1 mps 579 mmHg 44%
    14:00 +10°C° 0 mm 1 mps 579 mmHg 48%
    15:00 +10°C° 0 mm 1 mps 578 mmHg 52%
    16:00 +9°C° 0 mm 1 mps 578 mmHg 56%
    17:00 +7°C° 0 mm 1 mps 577 mmHg 66%
    18:00 +5°C° 0 mm 1 mps 576 mmHg 76%
    19:00 +3°C° 0 mm 1 mps 575 mmHg 86%
    20:00 +3°C° 0 mm 1 mps 575 mmHg 85%
    21:00 +3°C° 0 mm 1 mps 575 mmHg 85%
    22:00 +3°C° 0 mm 1 mps 575 mmHg 85%
    23:00 +3°C° 0 mm 1 mps 575 mmHg 84%

    Tomorrow, 18 October, Thursday

    Time Temperature Precipitation Wind Pressure Humidity
    00:00 +2°C° 0 mm 1 mps 575 mmHg 84%
    01:00 +2°C° 0 mm 1 mps 575 mmHg 84%
    02:00 +2°C° 0 mm 1 mps 575 mmHg 84%
    03:00 +2°C° 0 mm 1 mps 574 mmHg 84%
    04:00 +1°C° 0 mm 1 mps 574 mmHg 84%
    05:00 +1°C° 0 mm 1 mps 574 mmHg 83%
    06:00 +1°C° 0 mm 1 mps 574 mmHg 83%
    07:00 +1°C° 0 mm 1 mps 574 mmHg 82%
    08:00 +4°C° 0 mm 1 mps 575 mmHg 74%
    09:00 +6°C° 0 mm 1 mps 576 mmHg 66%
    10:00 +8°C° 0 mm 1 mps 578 mmHg 57%
    11:00 +9°C° 0 mm 1 mps 578 mmHg 55%
    12:00 +10°C° 0 mm 1 mps 578 mmHg 53%
    13:00 +10°C° 0 mm 1 mps 578 mmHg 51%
    14:00 +10°C° 0 mm 1 mps 578 mmHg 54%
    15:00 +9°C° 0 mm 1 mps 577 mmHg 58%
    16:00 +8°C° 0 mm 2 mps 577 mmHg 61%
    17:00 +7°C° 0 mm 1 mps 576 mmHg 70%
    18:00 +5°C° 0 mm 1 mps 576 mmHg 80%
    19:00 +3°C° 0 mm 1 mps 575 mmHg 89%
    20:00 +2°C° 0 mm 1 mps 575 mmHg 89%
    21:00 +2°C° 0 mm 1 mps 575 mmHg 89%
    22:00 +2°C° 0 mm 1 mps 575 mmHg 89%
    23:00 +2°C° 0 mm 1 mps 575 mmHg 88%

    Day after tomorrow, 19 October, Friday

    Time Temperature Precipitation Wind Pressure Humidity
    00:00 +2°C° 0 mm 1 mps 575 mmHg 87%
    01:00 +1°C° 0 mm 1 mps 575 mmHg 86%
    02:00 +1°C° 0 mm 1 mps 575 mmHg 85%
    03:00 +1°C° 0 mm 1 mps 575 mmHg 85%
    04:00 +1°C° 0 mm 1 mps 575 mmHg 84%
    05:00 +1°C° 0 mm 1 mps 575 mmHg 84%
    06:00 +1°C° 0 mm 1 mps 575 mmHg 83%
    07:00 +1°C° 0 mm 1 mps 575 mmHg 83%
    08:00 +4°C° 0 mm 1 mps 576 mmHg 72%
    09:00 +6°C° 0 mm 1 mps 578 mmHg 60%
    10:00 +9°C° 0 mm 1 mps 579 mmHg 49%
    11:00 +9°C° 0 mm 1 mps 580 mmHg 46%
    12:00 +10°C° 0 mm 1 mps 580 mmHg 43%
    13:00 +11°C° 0 mm 1 mps 580 mmHg 41%
    14:00 +10°C° 0 mm 1 mps 580 mmHg 46%
    15:00 +9°C° 0 mm 2 mps 580 mmHg 51%
    16:00 +8°C° 0 mm 2 mps 579 mmHg 56%
    17:00 +7°C° 0 mm 1 mps 578 mmHg 67%
    18:00 +4°C° 0 mm 1 mps 577 mmHg 77%
    19:00 +2°C° 0 mm 1 mps 577 mmHg 88%
    20:00 +2°C° 0 mm 1 mps 577 mmHg 87%
    21:00 +1°C° 0 mm 0 mps 577 mmHg 86%
    22:00 0°C° 0 mm 0 mps 577 mmHg 86%
    23:00 0°C° 0 mm 0 mps 577 mmHg 85%

    20 October, Saturday

    Time Temperature Precipitation Wind Pressure Humidity
    00:00 0°C° 0 mm 0 mps 577 mmHg 84%
    01:00 0°C° 0 mm 0 mps 577 mmHg 83%
    02:00 0°C° 0 mm 0 mps 577 mmHg 83%
    03:00 +1°C° 0 mm 1 mps 577 mmHg 82%
    04:00 +1°C° 0 mm 1 mps 577 mmHg 82%
    05:00 +1°C° 0 mm 1 mps 577 mmHg 81%
    06:00 0°C° 0 mm 1 mps 577 mmHg 80%
    07:00 0°C° 0 mm 1 mps 577 mmHg 79%
    08:00 +3°C° 0 mm 1 mps 579 mmHg 70%
    09:00 +5°C° 0 mm 1 mps 580 mmHg 60%
    10:00 +7°C° 0 mm 1 mps 582 mmHg 50%
    11:00 +8°C° 0 mm 1 mps 582 mmHg 47%
    12:00 +8°C° 0 mm 2 mps 582 mmHg 44%
    13:00 +9°C° 0 mm 2 mps 583 mmHg 41%
    14:00 +8°C° 0 mm 2 mps 582 mmHg 46%
    15:00 +7°C° 0 mm 2 mps 582 mmHg 51%
    16:00 +7°C° 0 mm 2 mps 582 mmHg 56%
    17:00 +5°C° 0 mm 2 mps 581 mmHg 66%
    18:00 +3°C° 0 mm 1 mps 580 mmHg 77%
    19:00 +1°C° 0 mm 1 mps 579 mmHg 87%
    20:00 +1°C° 0 mm 1 mps 579 mmHg 86%
    21:00 +1°C° 0 mm 1 mps 579 mmHg 86%
    22:00 0°C° 0 mm 1 mps 579 mmHg 85%
    23:00 0°C° 0 mm 1 mps 579 mmHg 81%

    21 October, Sunday

    Time Temperature Precipitation Wind Pressure Humidity
    00:00 0°C° 0 mm 1 mps 579 mmHg 77%
    01:00 0°C° 0 mm 1 mps 579 mmHg 73%
    02:00 0°C° 0 mm 1 mps 579 mmHg 69%
    03:00 0°C° 0 mm 1 mps 578 mmHg 66%
    04:00 -1°C° 0 mm 1 mps 578 mmHg 62%
    05:00 -1°C° 0 mm 1 mps 578 mmHg 58%
    06:00 -1°C° 0 mm 1 mps 578 mmHg 55%
    07:00 -1°C° 0 mm 1 mps 579 mmHg 52%
    08:00 +2°C° 0 mm 1 mps 580 mmHg 43%
    09:00 +4°C° 0 mm 0 mps 581 mmHg 34%
    10:00 +7°C° 0 mm 0 mps 583 mmHg 26%
    11:00 +9°C° 0 mm 1 mps 583 mmHg 25%
    12:00 +10°C° 0 mm 1 mps 583 mmHg 24%
    13:00 +11°C° 0 mm 1 mps 583 mmHg 23%
    14:00 +10°C° 0 mm 1 mps 583 mmHg 31%
    15:00 +9°C° 0 mm 1 mps 582 mmHg 38%
    16:00 +8°C° 0 mm 1 mps 581 mmHg 46%
    17:00 +6°C° 0 mm 1 mps 580 mmHg 54%
    18:00 +4°C° 0 mm 1 mps 579 mmHg 62%
    19:00 +1°C° 0 mm 1 mps 578 mmHg 70%
    20:00 +1°C° 0 mm 1 mps 578 mmHg 66%
    21:00 +1°C° 0 mm 1 mps 578 mmHg 63%
    22:00 +1°C° 0 mm 1 mps 578 mmHg 59%
    23:00 +1°C° 0 mm 1 mps 578 mmHg 56%

    22 October, Monday

    Time Temperature Precipitation Wind Pressure Humidity
    00:00 +1°C° 0 mm 1 mps 578 mmHg 53%
    01:00 +1°C° 0 mm 1 mps 578 mmHg 50%
    02:00 +1°C° 0 mm 1 mps 577 mmHg 50%
    03:00 +1°C° 0 mm 1 mps 577 mmHg 49%
    04:00 -1°C° 0 mm 2 mps 577 mmHg 48%
    05:00 -2°C° 0 mm 2 mps 577 mmHg 49%
    06:00 -2°C° 0 mm 2 mps 577 mmHg 50%
    07:00 -2°C° 0 mm 2 mps 577 mmHg 50%
    08:00 +1°C° 0 mm 2 mps 578 mmHg 46%
    09:00 +4°C° 0 mm 2 mps 580 mmHg 41%
    10:00 +6°C° 0 mm 2 mps 581 mmHg 37%
    11:00 +7°C° 0 mm 2 mps 581 mmHg 36%
    12:00 +7°C° 0 mm 2 mps 581 mmHg 36%
    13:00 +8°C° 0 mm 3 mps 581 mmHg 35%
    14:00 +7°C° 0 mm 3 mps 581 mmHg 40%
    15:00 +5°C° 0 mm 3 mps 580 mmHg 45%
    16:00 +6°C° 0 mm 2 mps 580 mmHg 50%
    17:00 +3°C° 0 mm 2 mps 579 mmHg 60%
    18:00 +1°C° 0 mm 2 mps 578 mmHg 69%
    19:00 0°C° 0 mm 1 mps 577 mmHg 79%
    20:00 0°C° 0 mm 1 mps 577 mmHg 78%
    21:00 -1°C° 0 mm 1 mps 577 mmHg 77%
    22:00 -1°C° 0 mm 1 mps 577 mmHg 77%
    23:00 -1°C° 0 mm 1 mps 577 mmHg 75%
    Show more